Hourly Weather Bolshie Nivy

Today, 20 June, Sunday

Time Temperature Precipitation Wind Pressure Humidity
00:00 +18°C° 0 mm 2 mps 746 mmHg 82%
01:00 +17°C° 0 mm 2 mps 746 mmHg 85%
02:00 +18°C° 0 mm 1 mps 746 mmHg 88%
03:00 +18°C° 0 mm 1 mps 746 mmHg 86%
04:00 +19°C° 0 mm 1 mps 746 mmHg 85%
05:00 +20°C° 0 mm 1 mps 746 mmHg 83%
06:00 +22°C° 0 mm 1 mps 746 mmHg 76%
07:00 +24°C° 0 mm 2 mps 746 mmHg 68%
08:00 +26°C° 0 mm 2 mps 746 mmHg 61%
09:00 +27°C° 0 mm 2 mps 746 mmHg 55%
10:00 +29°C° 0 mm 2 mps 746 mmHg 50%
11:00 +30°C° 0 mm 2 mps 746 mmHg 44%
12:00 +31°C° 0 mm 2 mps 745 mmHg 43%
13:00 +31°C° 0 mm 2 mps 745 mmHg 41%
14:00 +32°C° 0 mm 2 mps 745 mmHg 39%
15:00 +32°C° 0 mm 2 mps 745 mmHg 40%
16:00 +32°C° 0 mm 2 mps 745 mmHg 42%
17:00 +32°C° 0 mm 2 mps 744 mmHg 44%
18:00 +30°C° 0 mm 2 mps 744 mmHg 52%
19:00 +28°C° 0 mm 1 mps 744 mmHg 61%
20:00 +26°C° 0 mm 1 mps 744 mmHg 70%
21:00 +25°C° 0 mm 1 mps 744 mmHg 73%
22:00 +24°C° 0 mm 1 mps 744 mmHg 77%
23:00 +23°C° 0 mm 1 mps 744 mmHg 80%

Tomorrow, 21 June, Monday

Time Temperature Precipitation Wind Pressure Humidity
00:00 +23°C° 0 mm 1 mps 744 mmHg 82%
01:00 +22°C° 0 mm 1 mps 744 mmHg 84%
02:00 +22°C° 0 mm 1 mps 744 mmHg 86%
03:00 +22°C° 0 mm 1 mps 744 mmHg 86%
04:00 +22°C° 0 mm 1 mps 745 mmHg 85%
05:00 +23°C° 0 mm 1 mps 745 mmHg 85%
06:00 +24°C° 0 mm 1 mps 745 mmHg 79%
07:00 +25°C° 0 mm 1 mps 745 mmHg 74%
08:00 +27°C° 0 mm 1 mps 745 mmHg 69%
09:00 +28°C° 0 mm 1 mps 745 mmHg 62%
10:00 +30°C° 0 mm 2 mps 745 mmHg 55%
11:00 +31°C° 0 mm 2 mps 745 mmHg 48%
12:00 +32°C° 0 mm 2 mps 745 mmHg 45%
13:00 +32°C° 0 mm 2 mps 745 mmHg 42%
14:00 +32°C° 0 mm 2 mps 745 mmHg 40%
15:00 +33°C° 0 mm 3 mps 744 mmHg 42%
16:00 +33°C° 0 mm 3 mps 744 mmHg 45%
17:00 +31°C° 0 mm 3 mps 744 mmHg 48%
18:00 +29°C° 0 mm 2 mps 744 mmHg 58%
19:00 +26°C° 0 mm 2 mps 744 mmHg 68%
20:00 +24°C° 0 mm 1 mps 744 mmHg 78%
21:00 +23°C° 0 mm 1 mps 744 mmHg 80%
22:00 +22°C° 0 mm 1 mps 744 mmHg 82%
23:00 +20°C° 0 mm 1 mps 744 mmHg 84%

Day after tomorrow, 22 June, Tuesday

Time Temperature Precipitation Wind Pressure Humidity
00:00 +20°C° 0 mm 1 mps 744 mmHg 85%
01:00 +20°C° 0 mm 1 mps 744 mmHg 85%
02:00 +18°C° 0 mm 2 mps 744 mmHg 86%
03:00 +20°C° 0 mm 1 mps 744 mmHg 86%
04:00 +20°C° 0 mm 1 mps 744 mmHg 85%
05:00 +21°C° 0 mm 1 mps 745 mmHg 84%
06:00 +23°C° 0 mm 2 mps 745 mmHg 76%
07:00 +25°C° 0 mm 2 mps 745 mmHg 68%
08:00 +27°C° 0 mm 2 mps 745 mmHg 60%
09:00 +29°C° 0 mm 3 mps 745 mmHg 54%
10:00 +30°C° 0 mm 3 mps 744 mmHg 48%
11:00 +33°C° 0 mm 4 mps 744 mmHg 42%
12:00 +33°C° 0 mm 4 mps 744 mmHg 38%
13:00 +34°C° 0 mm 4 mps 744 mmHg 35%
14:00 +34°C° 0 mm 4 mps 744 mmHg 32%
15:00 +34°C° 0 mm 4 mps 744 mmHg 35%
16:00 +34°C° 0 mm 3 mps 744 mmHg 38%
17:00 +33°C° 0 mm 3 mps 744 mmHg 41%
18:00 +30°C° 0 mm 3 mps 743 mmHg 51%
19:00 +28°C° 0 mm 3 mps 743 mmHg 61%
20:00 +25°C° 0 mm 2 mps 743 mmHg 71%
21:00 +25°C° 0 mm 2 mps 743 mmHg 74%
22:00 +24°C° 0 mm 2 mps 744 mmHg 77%
23:00 +23°C° 0 mm 2 mps 744 mmHg 80%

23 June, Wednesday

Time Temperature Precipitation Wind Pressure Humidity
00:00 +23°C° 0 mm 2 mps 744 mmHg 84%
01:00 +21°C° 0 mm 2 mps 744 mmHg 88%
02:00 +20°C° 0 mm 2 mps 744 mmHg 92%
03:00 +21°C° 0 mm 2 mps 744 mmHg 90%
04:00 +21°C° 0 mm 2 mps 745 mmHg 88%
05:00 +23°C° 0 mm 2 mps 745 mmHg 85%
06:00 +25°C° 0 mm 2 mps 745 mmHg 76%
07:00 +27°C° 0 mm 2 mps 745 mmHg 67%
08:00 +29°C° 0 mm 2 mps 745 mmHg 58%
09:00 +30°C° 0 mm 3 mps 745 mmHg 51%
10:00 +33°C° 0 mm 3 mps 745 mmHg 44%
11:00 +34°C° 0 mm 4 mps 745 mmHg 37%
12:00 +35°C° 0 mm 3 mps 745 mmHg 34%
13:00 +35°C° 0 mm 3 mps 745 mmHg 32%
14:00 +36°C° 0 mm 3 mps 745 mmHg 30%
15:00 +36°C° 0 mm 3 mps 744 mmHg 32%
16:00 +35°C° 0 mm 3 mps 744 mmHg 35%
17:00 +35°C° 0 mm 3 mps 744 mmHg 38%
18:00 +33°C° 0 mm 3 mps 744 mmHg 48%
19:00 +29°C° 0 mm 3 mps 744 mmHg 59%
20:00 +27°C° 0 mm 2 mps 744 mmHg 70%
21:00 +26°C° 0 mm 2 mps 744 mmHg 73%
22:00 +25°C° 0 mm 2 mps 744 mmHg 76%
23:00 +24°C° 0 mm 2 mps 744 mmHg 78%

24 June, Thursday

Time Temperature Precipitation Wind Pressure Humidity
00:00 +23°C° 0 mm 2 mps 745 mmHg 79%
01:00 +23°C° 0 mm 2 mps 745 mmHg 81%
02:00 +21°C° 0 mm 2 mps 745 mmHg 82%
03:00 +23°C° 0 mm 2 mps 745 mmHg 81%
04:00 +23°C° 0 mm 2 mps 745 mmHg 81%
05:00 +23°C° 0 mm 1 mps 745 mmHg 81%
06:00 +26°C° 0 mm 2 mps 745 mmHg 72%
07:00 +28°C° 0 mm 2 mps 745 mmHg 63%
08:00 +30°C° 0 mm 2 mps 745 mmHg 54%
09:00 +31°C° 0 mm 2 mps 745 mmHg 48%
10:00 +34°C° 0 mm 3 mps 745 mmHg 42%
11:00 +35°C° 0 mm 3 mps 745 mmHg 36%
12:00 +35°C° 0 mm 3 mps 744 mmHg 34%
13:00 +36°C° 0 mm 3 mps 744 mmHg 32%
14:00 +36°C° 0 mm 3 mps 744 mmHg 30%
15:00 +36°C° 0 mm 3 mps 744 mmHg 33%
16:00 +36°C° 0 mm 3 mps 743 mmHg 35%
17:00 +35°C° 0 mm 3 mps 743 mmHg 37%
18:00 +33°C° 0 mm 3 mps 743 mmHg 48%
19:00 +29°C° 0 mm 2 mps 743 mmHg 58%
20:00 +27°C° 0 mm 2 mps 742 mmHg 69%
21:00 +26°C° 0 mm 2 mps 742 mmHg 72%
22:00 +25°C° 0 mm 2 mps 742 mmHg 74%
23:00 +24°C° 0 mm 2 mps 743 mmHg 77%

25 June, Friday

Time Temperature Precipitation Wind Pressure Humidity
00:00 +23°C° 0 mm 2 mps 742 mmHg 79%
01:00 +23°C° 0 mm 2 mps 742 mmHg 81%
02:00 +22°C° 0 mm 1 mps 742 mmHg 83%
03:00 +23°C° 0 mm 1 mps 742 mmHg 82%
04:00 +23°C° 0 mm 1 mps 742 mmHg 82%
05:00 +24°C° 0 mm 1 mps 742 mmHg 82%
06:00 +26°C° 0 mm 1 mps 742 mmHg 74%
07:00 +28°C° 0 mm 2 mps 742 mmHg 67%
08:00 +30°C° 0 mm 2 mps 742 mmHg 59%
09:00 +31°C° 0 mm 3 mps 742 mmHg 52%
10:00 +34°C° 0 mm 3 mps 741 mmHg 44%
11:00 +35°C° 0 mm 3 mps 741 mmHg 37%
12:00 +35°C° 0 mm 3 mps 741 mmHg 37%
13:00 +35°C° 0 mm 3 mps 741 mmHg 38%
14:00 +34°C° 0 mm 3 mps 740 mmHg 38%
15:00 +33°C° 0.1 mm 3 mps 740 mmHg 44%
16:00 +30°C° 0.1 mm 3 mps 739 mmHg 50%
17:00 +29°C° 0.1 mm 3 mps 739 mmHg 56%
18:00 +26°C° 1.1 mm 3 mps 739 mmHg 68%
19:00 +24°C° 1.1 mm 3 mps 740 mmHg 81%
20:00 +21°C° 1.1 mm 2 mps 741 mmHg 94%
21:00 +20°C° 0.2 mm 2 mps 740 mmHg 96%
22:00 +20°C° 0.2 mm 1 mps 740 mmHg 97%
23:00 +20°C° 0.2 mm 1 mps 739 mmHg 98%
Show more